Hourly Data Report for November 09, 2020

L'ASSOMPTION
QUEBEC
Current Station Operator: ECCC - MSC

45°48'34.000" N
73°26'05.000" W
21.00 m
7014160
71524
WEW

Download Data

Hourly Data (November 2020)
Hourly Data Report for November 9, 2020
TIME
LST
Temp Definition
°C
Dew Point Definition
°C
Rel Hum Definition
%
Precip. Amount Definition
mm

Wind Dir Definition
10's deg

Wind Spd Definition
km/h
Visibility Definition
km
Stn Press Definition
kPa
Hmdx Definition


Wind Chill Definition


Weather Definition


00:00 9.0 6.4 83 0.0 20 6   102.29     LegendNANA
01:00 7.5 5.5 87 0.0 23 3   102.29     LegendNANA
02:00 4.3 3.5 94 0.0 33 3   102.32     LegendNANA
03:00 3.3 2.8 96 0.0 31 4   102.33     LegendNANA
04:00 2.4 1.9 97 0.0 32 3   102.35     LegendNANA
05:00 2.6 2.0 96 0.0 28 2   102.36     LegendNANA
06:00 2.5 1.9 96 0.0 26 3   102.40     LegendNANA
07:00 2.3 1.5 95 0.0 21 2   102.42     LegendNANA
08:00 8.5 6.4 86 0.0 20 8   102.38     LegendNANA
09:00 11.5 7.5 77 0.0 21 12   102.33     LegendNANA
10:00 14.0 7.6 65 0.0 22 14   102.32     LegendNANA
11:00 16.3 8.0 58 0.0 21 15   102.24     LegendNANA
12:00 18.4 8.6 53 0.0 22 13   102.14     LegendNANA
13:00 17.9 8.3 53 0.0 20 12   102.09     LegendNANA
14:00 19.5 8.7 49 0.0 19 5   102.02     LegendNANA
15:00 20.2 8.6 47 0.0 20 15   101.98     LegendNANA
16:00 18.5 8.5 52 0.0 20 6   102.00     LegendNANA
17:00 17.6 8.0 53 0.0 18 6   101.97     LegendNANA
18:00 16.5 8.4 59 0.0 19 8   101.95     LegendNANA
19:00 15.4 7.7 60 0.0 19 7   101.93     LegendNANA
20:00 15.4 7.1 58 0.0 18 7   101.88     LegendNANA
21:00 13.3 7.1 66 0.0 20 3   101.87     LegendNANA
22:00 12.7 6.8 67 0.0 20 6   101.83     LegendNANA
23:00 10.4 6.6 77 0.0   0   101.76     LegendNANA

Notes on Data Quality.

Legend

  • E = Estimated
  • M = Missing
  • NA = Not Available*
  • [empty] = Indicates an unobserved value
Date modified: